User: anonymous   Login
Location: Unspecified
(0.0000°N, 0.0000°E)
Time: 01:57:29
(UTC+00:00)
Language:

FORMOSAT 3A - Orbit

View from above orbital plane
View from above orbital plane
View from above satellite
View from above satellite

Ground track
Ground track

The orbit data is extracted from the following two-line orbital elements,

1 29047U 06011A   17147.67040017 +.00000074 +00000-0 +45430-4 0  9996
2 29047 071.9799 229.0481 0050732 189.5469 170.4709 14.28582231581829
Epoch (UTC): 27 May 2017 16:05:22
Eccentricity: 0.0050732
inclination: 71.9799°
perigee height: 760 km
apogee height: 833 km
right ascension of ascending node: 229.0481°
argument of perigee: 189.5469°
revolutions per day: 14.28582231
mean anomaly at epoch: 170.4709°
orbit number at epoch: 58182

The dashed part of the orbit path shows where the satellite is in the earth's shadow,  

DLR